contact:dominique.lefevre@mio.osupytheas.fr, maurice.libes@osupytheas.fr, didier.mallarino@osupytheas.fr
Project:EMSO http://www.emso-fr.org/EMSO-France
Depth: 2436.0 m
Title:EMSO Ligure Ouest : Data MII capteur CSTAR
DateTime,Latitude,Longitude,Instrument_Serial,Reference_Counts,Signal_Counts,Corrected_Signal_raw_counts,Calculated_Beam_c_inverse_meters,Internal_thermistor_counts
DateTime,Latitude,Longitude,Instrument_Serial,Reference_Counts,Signal_Counts,Corrected_Signal_raw_counts,Calculated_Beam_c_inverse_meters,Internal_thermistor_counts
2019-06-29T00:02:30,42.805,6.029,CST-1368DR,8858,12394,15502,0.029,550
2019-06-29T00:05:31,42.805,6.029,CST-1368DR,8858,12396,15504,0.029,551
2019-06-29T00:08:32,42.805,6.029,CST-1368DR,8858,12394,15502,0.029,551
2019-06-29T00:11:34,42.805,6.029,CST-1368DR,8858,12395,15504,0.029,551
2019-06-29T00:14:35,42.805,6.029,CST-1368DR,8858,12392,15500,0.030,551
2019-06-29T00:17:37,42.805,6.029,CST-1368DR,8857,12393,15503,0.029,551
2019-06-29T00:20:38,42.805,6.029,CST-1368DR,8858,12394,15502,0.029,551
2019-06-29T00:23:40,42.805,6.029,CST-1368DR,8858,12395,15504,0.029,551
2019-06-29T00:26:41,42.805,6.029,CST-1368DR,8858,12395,15504,0.029,551
2019-06-29T00:29:42,42.805,6.029,CST-1368DR,8857,12396,15506,0.028,551
2019-06-29T00:32:44,42.805,6.029,CST-1368DR,8857,12396,15507,0.028,551
2019-06-29T00:35:45,42.805,6.029,CST-1368DR,8857,12396,15507,0.028,551
2019-06-29T00:38:47,42.805,6.029,CST-1368DR,8857,12395,15505,0.029,550
2019-06-29T00:41:48,42.805,6.029,CST-1368DR,8857,12395,15505,0.029,551
2019-06-29T00:44:49,42.805,6.029,CST-1368DR,8857,12393,15502,0.029,551
2019-06-29T00:47:51,42.805,6.029,CST-1368DR,8857,12394,15505,0.029,550
2019-06-29T00:50:52,42.805,6.029,CST-1368DR,8857,12395,15505,0.029,551
2019-06-29T00:53:54,42.805,6.029,CST-1368DR,8857,12394,15505,0.029,551
2019-06-29T00:56:55,42.805,6.029,CST-1368DR,8857,12394,15505,0.029,551
2019-06-29T00:59:56,42.805,6.029,CST-1368DR,8857,12389,15498,0.030,550
2019-06-29T01:02:58,42.805,6.029,CST-1368DR,8857,12391,15501,0.030,551
2019-06-29T01:05:59,42.805,6.029,CST-1368DR,8857,12393,15503,0.029,551
2019-06-29T01:09:01,42.805,6.029,CST-1368DR,8857,12393,15503,0.029,551
2019-06-29T01:12:02,42.805,6.029,CST-1368DR,8857,12395,15505,0.029,551
2019-06-29T01:15:03,42.805,6.029,CST-1368DR,8857,12394,15504,0.029,551
2019-06-29T01:18:05,42.805,6.029,CST-1368DR,8857,12394,15504,0.029,550
2019-06-29T01:21:06,42.805,6.029,CST-1368DR,8857,12395,15505,0.029,550
2019-06-29T01:24:08,42.805,6.029,CST-1368DR,8857,12394,15504,0.029,551
2019-06-29T01:27:09,42.805,6.029,CST-1368DR,8857,12390,15499,0.030,551
2019-06-29T01:30:11,42.805,6.029,CST-1368DR,8857,12390,15499,0.030,551
2019-06-29T01:33:12,42.805,6.029,CST-1368DR,8857,12395,15505,0.029,551
2019-06-29T01:36:13,42.805,6.029,CST-1368DR,8857,12393,15503,0.029,550
2019-06-29T01:39:15,42.805,6.029,CST-1368DR,8857,12395,15505,0.029,551
2019-06-29T01:42:16,42.805,6.029,CST-1368DR,8857,12393,15502,0.029,551
2019-06-29T01:45:18,42.805,6.029,CST-1368DR,8857,12394,15504,0.029,551
2019-06-29T01:48:19,42.805,6.029,CST-1368DR,8857,12394,15504,0.029,551
2019-06-29T01:51:20,42.805,6.029,CST-1368DR,8857,12392,15502,0.029,551
2019-06-29T01:54:22,42.805,6.029,CST-1368DR,8857,12393,15502,0.029,551
2019-06-29T01:57:23,42.805,6.029,CST-1368DR,8857,12392,15502,0.029,551
2019-06-29T02:00:25,42.805,6.029,CST-1368DR,8857,12393,15503,0.029,551
2019-06-29T02:03:26,42.805,6.029,CST-1368DR,8856,12395,15507,0.028,551
2019-06-29T02:06:27,42.805,6.029,CST-1368DR,8856,12394,15506,0.028,551
2019-06-29T02:09:29,42.805,6.029,CST-1368DR,8857,12394,15504,0.029,551
2019-06-29T02:12:30,42.805,6.029,CST-1368DR,8856,12391,15502,0.029,551
2019-06-29T02:15:32,42.805,6.029,CST-1368DR,8856,12394,15505,0.029,550
2019-06-29T02:18:33,42.805,6.029,CST-1368DR,8856,12392,15503,0.029,551
2019-06-29T02:21:34,42.805,6.029,CST-1368DR,8856,12395,15506,0.028,551
2019-06-29T02:24:36,42.805,6.029,CST-1368DR,8856,12392,15503,0.029,551
2019-06-29T02:27:37,42.805,6.029,CST-1368DR,8856,12390,15501,0.030,551
2019-06-29T02:30:39,42.805,6.029,CST-1368DR,8856,12394,15506,0.028,551
2019-06-29T02:33:40,42.805,6.029,CST-1368DR,8856,12392,15503,0.029,551
2019-06-29T02:36:42,42.805,6.029,CST-1368DR,8856,12393,15504,0.029,551
2019-06-29T02:39:43,42.805,6.029,CST-1368DR,8856,12394,15505,0.029,551
2019-06-29T02:42:44,42.805,6.029,CST-1368DR,8856,12394,15505,0.029,551
2019-06-29T02:45:46,42.805,6.029,CST-1368DR,8856,12393,15505,0.029,551
2019-06-29T02:48:47,42.805,6.029,CST-1368DR,8856,12393,15505,0.029,551
2019-06-29T02:51:49,42.805,6.029,CST-1368DR,8856,12385,15495,0.031,551
2019-06-29T02:54:50,42.805,6.029,CST-1368DR,8856,12393,15504,0.029,551
2019-06-29T02:57:51,42.805,6.029,CST-1368DR,8856,12391,15502,0.029,551
2019-06-29T03:00:53,42.805,6.029,CST-1368DR,8856,12389,15499,0.030,551
2019-06-29T03:03:54,42.805,6.029,CST-1368DR,8856,12394,15505,0.029,550
2019-06-29T03:06:56,42.805,6.029,CST-1368DR,8856,12393,15504,0.029,551
2019-06-29T03:09:57,42.805,6.029,CST-1368DR,8856,12391,15502,0.029,551
2019-06-29T03:12:58,42.805,6.029,CST-1368DR,8856,12390,15501,0.030,551
2019-06-29T03:16:00,42.805,6.029,CST-1368DR,8856,12390,15501,0.030,551
2019-06-29T03:19:01,42.805,6.029,CST-1368DR,8856,12393,15505,0.029,551
2019-06-29T03:22:03,42.805,6.029,CST-1368DR,8856,12393,15505,0.029,551
2019-06-29T03:25:04,42.805,6.029,CST-1368DR,8856,12392,15503,0.029,551
2019-06-29T03:28:06,42.805,6.029,CST-1368DR,8856,12394,15505,0.029,551
2019-06-29T03:31:07,42.805,6.029,CST-1368DR,8856,12393,15504,0.029,551
2019-06-29T03:34:08,42.805,6.029,CST-1368DR,8856,12393,15504,0.029,551
2019-06-29T03:37:10,42.805,6.029,CST-1368DR,8856,12393,15505,0.029,550
2019-06-29T03:40:11,42.805,6.029,CST-1368DR,8856,12393,15504,0.029,551
2019-06-29T03:43:13,42.805,6.029,CST-1368DR,8856,12391,15502,0.029,551
2019-06-29T03:46:14,42.805,6.029,CST-1368DR,8856,12393,15505,0.029,551
2019-06-29T03:49:15,42.805,6.029,CST-1368DR,8856,12392,15503,0.029,550
2019-06-29T03:52:17,42.805,6.029,CST-1368DR,8856,12391,15502,0.029,551
2019-06-29T03:55:18,42.805,6.029,CST-1368DR,8856,12393,15505,0.029,551
2019-06-29T03:58:20,42.805,6.029,CST-1368DR,8856,12394,15505,0.029,551
2019-06-29T04:01:21,42.805,6.029,CST-1368DR,8855,12393,15507,0.028,550
2019-06-29T04:04:22,42.805,6.029,CST-1368DR,8855,12393,15506,0.028,551
2019-06-29T04:07:24,42.805,6.029,CST-1368DR,8855,12387,15498,0.030,550
2019-06-29T04:10:25,42.805,6.029,CST-1368DR,8855,12392,15505,0.029,551
2019-06-29T04:13:27,42.805,6.029,CST-1368DR,8855,12390,15503,0.029,550
2019-06-29T04:16:28,42.805,6.029,CST-1368DR,8855,12388,15500,0.030,551
2019-06-29T04:19:29,42.805,6.029,CST-1368DR,8855,12393,15506,0.028,551
2019-06-29T04:22:31,42.805,6.029,CST-1368DR,8855,12391,15504,0.029,551
2019-06-29T04:25:32,42.805,6.029,CST-1368DR,8855,12389,15502,0.029,551
2019-06-29T04:28:34,42.805,6.029,CST-1368DR,8855,12393,15506,0.028,551
2019-06-29T04:31:35,42.805,6.029,CST-1368DR,8855,12389,15501,0.030,551
2019-06-29T04:34:37,42.805,6.029,CST-1368DR,8855,12390,15503,0.029,551
2019-06-29T04:37:38,42.805,6.029,CST-1368DR,8855,12389,15501,0.030,551
2019-06-29T04:40:39,42.805,6.029,CST-1368DR,8855,12393,15506,0.028,551
2019-06-29T04:43:41,42.805,6.029,CST-1368DR,8855,12392,15504,0.029,551
2019-06-29T04:46:42,42.805,6.029,CST-1368DR,8855,12391,15504,0.029,551
2019-06-29T04:49:44,42.805,6.029,CST-1368DR,8855,12393,15506,0.028,551
2019-06-29T04:52:45,42.805,6.029,CST-1368DR,8855,12392,15505,0.029,551
2019-06-29T04:55:46,42.805,6.029,CST-1368DR,8855,12392,15505,0.029,550
2019-06-29T04:58:48,42.805,6.029,CST-1368DR,8855,12392,15505,0.029,551
2019-06-29T05:01:49,42.805,6.029,CST-1368DR,8855,12391,15503,0.029,551
2019-06-29T05:04:51,42.805,6.029,CST-1368DR,8855,12391,15504,0.029,551
2019-06-29T05:07:52,42.805,6.029,CST-1368DR,8855,12392,15504,0.029,551
2019-06-29T05:10:53,42.805,6.029,CST-1368DR,8855,12392,15505,0.029,551
2019-06-29T05:13:55,42.805,6.029,CST-1368DR,8855,12392,15505,0.029,551
2019-06-29T05:16:56,42.805,6.029,CST-1368DR,8855,12388,15500,0.030,551
2019-06-29T05:19:58,42.805,6.029,CST-1368DR,8855,12390,15502,0.029,551
2019-06-29T05:22:59,42.805,6.029,CST-1368DR,8855,12391,15504,0.029,551
2019-06-29T05:26:00,42.805,6.029,CST-1368DR,8855,12390,15502,0.029,551
2019-06-29T05:29:02,42.805,6.029,CST-1368DR,8855,12391,15504,0.029,551
2019-06-29T05:32:03,42.805,6.029,CST-1368DR,8855,12389,15502,0.029,551
2019-06-29T05:35:05,42.805,6.029,CST-1368DR,8855,12390,15503,0.029,551
2019-06-29T05:38:06,42.805,6.029,CST-1368DR,8855,12390,15503,0.029,551
2019-06-29T05:41:08,42.805,6.029,CST-1368DR,8855,12391,15504,0.029,551
2019-06-29T05:44:09,42.805,6.029,CST-1368DR,8855,12390,15502,0.029,551
2019-06-29T05:47:10,42.805,6.029,CST-1368DR,8855,12391,15503,0.029,551
2019-06-29T05:50:12,42.805,6.029,CST-1368DR,8855,12390,15502,0.029,551
2019-06-29T05:53:13,42.805,6.029,CST-1368DR,8855,12381,15491,0.032,551
2019-06-29T05:56:15,42.805,6.029,CST-1368DR,8854,12380,15491,0.032,551
2019-06-29T05:59:16,42.805,6.029,CST-1368DR,8854,12391,15506,0.028,551
2019-06-29T06:02:17,42.805,6.029,CST-1368DR,8855,12391,15504,0.029,551
2019-06-29T06:05:19,42.805,6.029,CST-1368DR,8854,12390,15504,0.029,551
2019-06-29T06:08:20,42.805,6.029,CST-1368DR,8854,12391,15505,0.029,551
2019-06-29T06:11:22,42.805,6.029,CST-1368DR,8854,12388,15501,0.030,551
2019-06-29T06:14:23,42.805,6.029,CST-1368DR,8854,12390,15504,0.029,551
2019-06-29T06:17:24,42.805,6.029,CST-1368DR,8854,12387,15501,0.030,551
2019-06-29T06:20:26,42.805,6.029,CST-1368DR,8854,12390,15504,0.029,551
2019-06-29T06:23:27,42.805,6.029,CST-1368DR,8854,12388,15501,0.030,551
2019-06-29T06:26:29,42.805,6.029,CST-1368DR,8854,12390,15504,0.029,551
2019-06-29T06:29:30,42.805,6.029,CST-1368DR,8854,12383,15495,0.031,551
2019-06-29T06:32:31,42.805,6.029,CST-1368DR,8854,12385,15498,0.030,551
2019-06-29T06:35:33,42.805,6.029,CST-1368DR,8854,12391,15505,0.029,551
2019-06-29T06:38:34,42.805,6.029,CST-1368DR,8854,12391,15505,0.029,551
2019-06-29T06:41:36,42.805,6.029,CST-1368DR,8854,12388,15502,0.029,551
2019-06-29T06:44:37,42.805,6.029,CST-1368DR,8854,12391,15505,0.029,551
2019-06-29T06:47:39,42.805,6.029,CST-1368DR,8854,12391,15505,0.029,551
2019-06-29T06:50:40,42.805,6.029,CST-1368DR,8854,12389,15503,0.029,551
2019-06-29T06:53:41,42.805,6.029,CST-1368DR,8854,12388,15502,0.029,550
2019-06-29T06:56:43,42.805,6.029,CST-1368DR,8854,12388,15502,0.029,551
2019-06-29T06:59:44,42.805,6.029,CST-1368DR,8854,12390,15504,0.029,551
2019-06-29T07:02:46,42.805,6.029,CST-1368DR,8854,12389,15502,0.029,551
2019-06-29T07:05:47,42.805,6.029,CST-1368DR,8854,12390,15504,0.029,551
2019-06-29T07:08:48,42.805,6.029,CST-1368DR,8854,12389,15503,0.029,550
2019-06-29T07:11:50,42.805,6.029,CST-1368DR,8854,12389,15502,0.029,551
2019-06-29T07:14:51,42.805,6.029,CST-1368DR,8854,12390,15504,0.029,551
2019-06-29T07:17:53,42.805,6.029,CST-1368DR,8854,12390,15504,0.029,551
2019-06-29T07:20:54,42.805,6.029,CST-1368DR,8854,12390,15504,0.029,550
2019-06-29T07:23:55,42.805,6.029,CST-1368DR,8854,12390,15504,0.029,551
2019-06-29T07:26:57,42.805,6.029,CST-1368DR,8854,12390,15504,0.029,551
2019-06-29T07:29:58,42.805,6.029,CST-1368DR,8854,12391,15505,0.029,551
2019-06-29T07:33:00,42.805,6.029,CST-1368DR,8854,12387,15501,0.030,551
2019-06-29T07:36:01,42.805,6.029,CST-1368DR,8854,12391,15506,0.028,550
2019-06-29T07:39:02,42.805,6.029,CST-1368DR,8854,12387,15500,0.030,551
2019-06-29T07:42:04,42.805,6.029,CST-1368DR,8854,12391,15505,0.029,551
2019-06-29T07:45:05,42.805,6.029,CST-1368DR,8854,12392,15506,0.028,551
2019-06-29T07:48:07,42.805,6.029,CST-1368DR,8854,12391,15505,0.029,551
2019-06-29T07:51:08,42.805,6.029,CST-1368DR,8854,12389,15502,0.029,551
2019-06-29T07:54:10,42.805,6.029,CST-1368DR,8854,12391,15505,0.029,551
2019-06-29T07:57:11,42.805,6.029,CST-1368DR,8854,12390,15503,0.029,551
2019-06-29T08:00:12,42.805,6.029,CST-1368DR,8854,12387,15500,0.030,551
2019-06-29T08:03:14,42.805,6.029,CST-1368DR,8854,12388,15502,0.029,551
2019-06-29T08:06:15,42.805,6.029,CST-1368DR,8853,12390,15506,0.028,551
2019-06-29T08:09:17,42.805,6.029,CST-1368DR,8853,12391,15507,0.028,551
2019-06-29T08:12:18,42.805,6.029,CST-1368DR,8853,12389,15504,0.029,551
2019-06-29T08:15:19,42.805,6.029,CST-1368DR,8853,12390,15506,0.028,551
2019-06-29T08:18:21,42.805,6.029,CST-1368DR,8853,12389,15504,0.029,551
2019-06-29T08:21:22,42.805,6.029,CST-1368DR,8853,12387,15501,0.030,551
2019-06-29T08:24:24,42.805,6.029,CST-1368DR,8853,12388,15503,0.029,551
2019-06-29T08:27:25,42.805,6.029,CST-1368DR,8853,12390,15506,0.028,551
2019-06-29T08:30:26,42.805,6.029,CST-1368DR,8853,12383,15497,0.031,551
2019-06-29T08:33:28,42.805,6.029,CST-1368DR,8853,12390,15505,0.029,551
2019-06-29T08:36:29,42.805,6.029,CST-1368DR,8853,12390,15505,0.029,551
2019-06-29T08:39:31,42.805,6.029,CST-1368DR,8853,12389,15504,0.029,551
2019-06-29T08:42:32,42.805,6.029,CST-1368DR,8853,12389,15504,0.029,551
2019-06-29T08:45:34,42.805,6.029,CST-1368DR,8853,12389,15504,0.029,551
2019-06-29T08:48:35,42.805,6.029,CST-1368DR,8853,12384,15498,0.030,551
2019-06-29T08:51:36,42.805,6.029,CST-1368DR,8853,12390,15505,0.029,551
2019-06-29T08:54:38,42.805,6.029,CST-1368DR,8853,12386,15500,0.030,550
2019-06-29T08:57:39,42.805,6.029,CST-1368DR,8853,12388,15503,0.029,551
2019-06-29T09:00:41,42.805,6.029,CST-1368DR,8853,12389,15504,0.029,551
2019-06-29T09:03:42,42.805,6.029,CST-1368DR,8853,12388,15503,0.029,551
2019-06-29T09:06:43,42.805,6.029,CST-1368DR,8853,12386,15501,0.030,551
2019-06-29T09:09:45,42.805,6.029,CST-1368DR,8853,12390,15505,0.029,551
2019-06-29T09:12:46,42.805,6.029,CST-1368DR,8853,12387,15502,0.029,551
2019-06-29T09:15:48,42.805,6.029,CST-1368DR,8853,12388,15503,0.029,551
2019-06-29T09:18:49,42.805,6.029,CST-1368DR,8853,12390,15506,0.028,551
2019-06-29T09:21:50,42.805,6.029,CST-1368DR,8853,12387,15501,0.030,551
2019-06-29T09:24:52,42.805,6.029,CST-1368DR,8852,12383,15498,0.030,551
2019-06-29T09:27:53,42.805,6.029,CST-1368DR,8853,12387,15502,0.029,551
2019-06-29T09:30:55,42.805,6.029,CST-1368DR,8852,12388,15505,0.029,551
2019-06-29T09:33:56,42.805,6.029,CST-1368DR,8852,12383,15499,0.030,551
2019-06-29T09:36:57,42.805,6.029,CST-1368DR,8852,12386,15503,0.029,551
2019-06-29T09:39:59,42.805,6.029,CST-1368DR,8853,12389,15505,0.029,551
2019-06-29T09:43:00,42.805,6.029,CST-1368DR,8852,12389,15506,0.028,551
2019-06-29T09:46:02,42.805,6.029,CST-1368DR,8852,12388,15505,0.029,551
2019-06-29T09:49:03,42.805,6.029,CST-1368DR,8852,12388,15505,0.029,551
2019-06-29T09:52:05,42.805,6.029,CST-1368DR,8852,12385,15501,0.030,551
2019-06-29T09:55:06,42.805,6.029,CST-1368DR,8852,12388,15504,0.029,551
2019-06-29T09:58:07,42.805,6.029,CST-1368DR,8852,12389,15506,0.028,551
2019-06-29T10:01:09,42.805,6.029,CST-1368DR,8852,12384,15499,0.030,551
2019-06-29T10:04:10,42.805,6.029,CST-1368DR,8852,12388,15505,0.029,551
2019-06-29T10:07:12,42.805,6.029,CST-1368DR,8852,12389,15506,0.028,551
2019-06-29T10:10:13,42.805,6.029,CST-1368DR,8852,12385,15500,0.030,551
2019-06-29T10:13:14,42.805,6.029,CST-1368DR,8852,12387,15503,0.029,551
2019-06-29T10:16:16,42.805,6.029,CST-1368DR,8852,12388,15505,0.029,550
2019-06-29T10:19:17,42.805,6.029,CST-1368DR,8852,12386,15503,0.029,550
2019-06-29T10:22:19,42.805,6.029,CST-1368DR,8852,12388,15505,0.029,551
2019-06-29T10:25:20,42.805,6.029,CST-1368DR,8851,12297,15393,0.058,551
2019-06-29T10:28:21,42.805,6.029,CST-1368DR,8852,12387,15503,0.029,551
2019-06-29T10:31:23,42.805,6.029,CST-1368DR,8852,12385,15501,0.030,551
2019-06-29T10:34:24,42.805,6.029,CST-1368DR,8852,12388,15504,0.029,551
2019-06-29T10:37:26,42.805,6.029,CST-1368DR,8852,12386,15503,0.029,551
2019-06-29T10:40:27,42.805,6.029,CST-1368DR,8852,12388,15504,0.029,551
2019-06-29T10:43:28,42.805,6.029,CST-1368DR,8852,12385,15501,0.030,551
2019-06-29T10:46:30,42.805,6.029,CST-1368DR,8852,12389,15505,0.029,551
2019-06-29T10:49:31,42.805,6.029,CST-1368DR,8852,12388,15505,0.029,551
2019-06-29T10:52:33,42.805,6.029,CST-1368DR,8852,12386,15503,0.029,551
2019-06-29T10:55:34,42.805,6.029,CST-1368DR,8852,12389,15506,0.028,551
2019-06-29T10:58:36,42.805,6.029,CST-1368DR,8852,12388,15505,0.029,551
2019-06-29T11:01:37,42.805,6.029,CST-1368DR,8852,12389,15506,0.028,550
2019-06-29T11:04:38,42.805,6.029,CST-1368DR,8852,12388,15504,0.029,551
2019-06-29T11:07:40,42.805,6.029,CST-1368DR,8852,12382,15497,0.031,551
2019-06-29T11:10:41,42.805,6.029,CST-1368DR,8852,12385,15501,0.030,551
2019-06-29T11:13:43,42.805,6.029,CST-1368DR,8852,12390,15507,0.028,551
2019-06-29T11:16:44,42.805,6.029,CST-1368DR,8852,12388,15505,0.029,551
2019-06-29T11:19:45,42.805,6.029,CST-1368DR,8852,12385,15501,0.030,550
2019-06-29T11:22:47,42.805,6.029,CST-1368DR,8852,12389,15506,0.028,551
2019-06-29T11:25:48,42.805,6.029,CST-1368DR,8852,12383,15499,0.030,551
2019-06-29T11:28:50,42.805,6.029,CST-1368DR,8851,12388,15506,0.028,551
2019-06-29T11:31:51,42.805,6.029,CST-1368DR,8852,12389,15506,0.028,551
2019-06-29T11:34:52,42.805,6.029,CST-1368DR,8851,12388,15506,0.028,551
2019-06-29T11:37:54,42.805,6.029,CST-1368DR,8851,12388,15507,0.028,551
2019-06-29T11:40:55,42.805,6.029,CST-1368DR,8851,12387,15505,0.029,551
2019-06-29T11:43:57,42.805,6.029,CST-1368DR,8851,12389,15507,0.028,551
2019-06-29T11:46:58,42.805,6.029,CST-1368DR,8851,12381,15497,0.031,551
2019-06-29T11:50:00,42.805,6.029,CST-1368DR,8851,12388,15507,0.028,551
2019-06-29T11:53:01,42.805,6.029,CST-1368DR,8851,12390,15509,0.028,551
2019-06-29T11:56:02,42.805,6.029,CST-1368DR,8851,12368,15481,0.035,551
2019-06-29T11:59:04,42.805,6.029,CST-1368DR,8851,12386,15504,0.029,551
2019-06-29T12:02:05,42.805,6.029,CST-1368DR,8851,12385,15503,0.029,551
2019-06-29T12:05:07,42.805,6.029,CST-1368DR,8851,12387,15504,0.029,551
2019-06-29T12:08:08,42.805,6.029,CST-1368DR,8851,12388,15506,0.028,551
2019-06-29T12:11:09,42.805,6.029,CST-1368DR,8851,12386,15504,0.029,551
2019-06-29T12:14:11,42.805,6.029,CST-1368DR,8851,12386,15504,0.029,551
2019-06-29T12:17:12,42.805,6.029,CST-1368DR,8851,12387,15505,0.029,551
2019-06-29T12:20:14,42.805,6.029,CST-1368DR,8851,12387,15505,0.029,551
2019-06-29T12:23:15,42.805,6.029,CST-1368DR,8851,12389,15507,0.028,551
2019-06-29T12:26:16,42.805,6.029,CST-1368DR,8851,12387,15505,0.029,551
2019-06-29T12:29:18,42.805,6.029,CST-1368DR,8851,12388,15506,0.028,550
2019-06-29T12:32:19,42.805,6.029,CST-1368DR,8851,12380,15496,0.031,551
2019-06-29T12:35:21,42.805,6.029,CST-1368DR,8851,12387,15504,0.029,551
2019-06-29T12:38:22,42.805,6.029,CST-1368DR,8850,12349,15459,0.040,550
2019-06-29T12:41:23,42.805,6.029,CST-1368DR,8851,12387,15505,0.029,551
2019-06-29T12:44:25,42.805,6.029,CST-1368DR,8850,12381,15500,0.030,551
2019-06-29T12:47:26,42.805,6.029,CST-1368DR,8850,12388,15507,0.028,551
2019-06-29T12:50:28,42.805,6.029,CST-1368DR,8850,12387,15507,0.028,551
2019-06-29T12:53:29,42.805,6.029,CST-1368DR,8850,12388,15508,0.028,551
2019-06-29T12:56:31,42.805,6.029,CST-1368DR,8850,12381,15499,0.030,551
2019-06-29T12:59:32,42.805,6.029,CST-1368DR,8850,12366,15480,0.035,551
2019-06-29T13:02:33,42.805,6.029,CST-1368DR,8850,12382,15500,0.030,551
2019-06-29T13:05:35,42.805,6.029,CST-1368DR,8850,12384,15503,0.029,551
2019-06-29T13:08:36,42.805,6.029,CST-1368DR,8850,12384,15503,0.029,551
2019-06-29T13:11:38,42.805,6.029,CST-1368DR,8850,12385,15505,0.029,551
2019-06-29T13:14:39,42.805,6.029,CST-1368DR,8850,12372,15487,0.033,551
2019-06-29T13:17:40,42.805,6.029,CST-1368DR,8850,12383,15501,0.030,551
2019-06-29T13:20:42,42.805,6.029,CST-1368DR,8850,12388,15508,0.028,551
2019-06-29T13:23:43,42.805,6.029,CST-1368DR,8850,12386,15505,0.029,551
2019-06-29T13:26:45,42.805,6.029,CST-1368DR,8850,12385,15504,0.029,551
2019-06-29T13:29:46,42.805,6.029,CST-1368DR,8850,12383,15502,0.029,551
2019-06-29T13:32:47,42.805,6.029,CST-1368DR,8850,12384,15503,0.029,550
2019-06-29T13:35:49,42.805,6.029,CST-1368DR,8850,12386,15505,0.029,550
2019-06-29T13:38:50,42.805,6.029,CST-1368DR,8850,12385,15505,0.029,551
2019-06-29T13:41:52,42.805,6.029,CST-1368DR,8850,12386,15506,0.028,551
2019-06-29T13:44:53,42.805,6.029,CST-1368DR,8850,12384,15502,0.029,551
2019-06-29T13:47:54,42.805,6.029,CST-1368DR,8850,12382,15500,0.030,551
2019-06-29T13:50:56,42.805,6.029,CST-1368DR,8850,12385,15504,0.029,551
2019-06-29T13:53:57,42.805,6.029,CST-1368DR,8849,12378,15497,0.031,551
2019-06-29T13:56:59,42.805,6.029,CST-1368DR,8850,12384,15503,0.029,551
2019-06-29T14:00:00,42.805,6.029,CST-1368DR,8850,12384,15503,0.029,551
2019-06-29T14:03:02,42.805,6.029,CST-1368DR,8850,12379,15496,0.031,551
2019-06-29T14:06:03,42.805,6.029,CST-1368DR,8850,12382,15500,0.030,551
2019-06-29T14:09:04,42.805,6.029,CST-1368DR,8850,12384,15503,0.029,551
2019-06-29T14:12:06,42.805,6.029,CST-1368DR,8850,12385,15504,0.029,551
2019-06-29T14:15:07,42.805,6.029,CST-1368DR,8849,12384,15504,0.029,551
2019-06-29T14:18:09,42.805,6.029,CST-1368DR,8849,12380,15499,0.030,551
2019-06-29T14:21:10,42.805,6.029,CST-1368DR,8849,12385,15506,0.028,551
2019-06-29T14:24:11,42.805,6.029,CST-1368DR,8849,12385,15506,0.028,551
2019-06-29T14:27:13,42.805,6.029,CST-1368DR,8849,12380,15499,0.030,551
2019-06-29T14:30:14,42.805,6.029,CST-1368DR,8849,12385,15506,0.028,550
2019-06-29T14:33:16,42.805,6.029,CST-1368DR,8849,12385,15506,0.028,551
2019-06-29T14:36:17,42.805,6.029,CST-1368DR,8849,12381,15501,0.030,551
2019-06-29T14:39:18,42.805,6.029,CST-1368DR,8849,12377,15496,0.031,551
2019-06-29T14:42:20,42.805,6.029,CST-1368DR,8849,12380,15500,0.030,551
2019-06-29T14:45:21,42.805,6.029,CST-1368DR,8849,12383,15503,0.029,551
2019-06-29T14:48:23,42.805,6.029,CST-1368DR,8849,12385,15506,0.028,551
2019-06-29T14:51:24,42.805,6.029,CST-1368DR,8849,12382,15502,0.029,551
2019-06-29T14:54:26,42.805,6.029,CST-1368DR,8849,12380,15500,0.030,551
2019-06-29T14:57:27,42.805,6.029,CST-1368DR,8849,12384,15505,0.029,551
2019-06-29T15:00:28,42.805,6.029,CST-1368DR,8849,12385,15506,0.028,551
2019-06-29T15:03:30,42.805,6.029,CST-1368DR,8849,12385,15506,0.028,551
2019-06-29T15:06:31,42.805,6.029,CST-1368DR,8849,12385,15506,0.028,551
2019-06-29T15:09:33,42.805,6.029,CST-1368DR,8849,12384,15505,0.029,551
2019-06-29T15:12:34,42.805,6.029,CST-1368DR,8849,12385,15506,0.028,551
2019-06-29T15:15:35,42.805,6.029,CST-1368DR,8849,12384,15505,0.029,551
2019-06-29T15:18:37,42.805,6.029,CST-1368DR,8849,12385,15505,0.029,551
2019-06-29T15:21:38,42.805,6.029,CST-1368DR,8849,12385,15505,0.029,551
2019-06-29T15:24:40,42.805,6.029,CST-1368DR,8849,12379,15498,0.030,551
2019-06-29T15:27:41,42.805,6.029,CST-1368DR,8849,12384,15505,0.029,551
2019-06-29T15:30:42,42.805,6.029,CST-1368DR,8849,12385,15506,0.028,551
2019-06-29T15:33:44,42.805,6.029,CST-1368DR,8849,12381,15501,0.030,550
2019-06-29T15:36:45,42.805,6.029,CST-1368DR,8849,12380,15500,0.030,551
2019-06-29T15:39:47,42.805,6.029,CST-1368DR,8849,12381,15501,0.030,551
2019-06-29T15:42:48,42.805,6.029,CST-1368DR,8849,12384,15504,0.029,551
2019-06-29T15:45:49,42.805,6.029,CST-1368DR,8849,12384,15504,0.029,551
2019-06-29T15:48:51,42.805,6.029,CST-1368DR,8849,12385,15506,0.028,551
2019-06-29T15:51:52,42.805,6.029,CST-1368DR,8849,12384,15504,0.029,550
2019-06-29T15:54:54,42.805,6.029,CST-1368DR,8849,12383,15504,0.029,551
2019-06-29T15:57:55,42.805,6.029,CST-1368DR,8849,12385,15506,0.028,551
2019-06-29T16:00:57,42.805,6.029,CST-1368DR,8849,12383,15504,0.029,551
2019-06-29T16:03:58,42.805,6.029,CST-1368DR,8849,12381,15501,0.030,551
2019-06-29T16:06:59,42.805,6.029,CST-1368DR,8849,12384,15505,0.029,550
2019-06-29T16:10:01,42.805,6.029,CST-1368DR,8849,12382,15502,0.029,551
2019-06-29T16:13:02,42.805,6.029,CST-1368DR,8849,12382,15501,0.030,551
2019-06-29T16:16:04,42.805,6.029,CST-1368DR,8849,12384,15505,0.029,551
2019-06-29T16:19:05,42.805,6.029,CST-1368DR,8848,12383,15504,0.029,551
2019-06-29T16:22:06,42.805,6.029,CST-1368DR,8848,12385,15507,0.028,551
2019-06-29T16:25:08,42.805,6.029,CST-1368DR,8848,12383,15505,0.029,551
2019-06-29T16:28:09,42.805,6.029,CST-1368DR,8848,12378,15498,0.030,551
2019-06-29T16:31:11,42.805,6.029,CST-1368DR,8848,12384,15506,0.028,551
2019-06-29T16:34:12,42.805,6.029,CST-1368DR,8848,12378,15498,0.030,550
2019-06-29T16:37:13,42.805,6.029,CST-1368DR,8848,12381,15503,0.029,551